Location: Newark
(40.3820°N, 3.6624°W)
Time: 22:46:36
(UTC+00:00)

N. Korean satellite - Pass Details

Date: 22 November 2019
Orbit: 456 x 506 km, 97.2° (Epoch: 06 December)

Event Time Altitude Azimuth Distance (km) Brightness Sun altitude
Rises 06:25:49 0° 6° (N) 2,607 10.1 -8.3°
Reaches altitude 10° 06:27:58 10° 1° (N) 1,712 9.2 -7.9°
Maximum altitude 06:31:32 50° 285° (WNW) 642 6.8 -7.3°
Drops below altitude 10° 06:35:02 10° 210° (SSW) 1,675 9.2 -6.6°
Sets 06:37:07 0° 205° (SSW) 2,542 10.2 -6.3°
